ARIANE 44LP DEB, 25538

Orbit data source: Space-Track

ARIANE 44LP DEB, 25538 is space debris in HEO originally from a launch on Sun, 11 Dec 1988 UTC launched from the French Guiana (FRGUI). Debris objects in space refer to the collection of defunct objects orbiting the Earth. Examples of debris include non-operational satellites, rocket bodies, and fragments generated from explosions, collisions, or faulty payload assembly.

Loading next visibility...
Identifier
25538, 1988-109E
Orbit
HEO
Country
Flag of FRFR
Related business
Manufacturer
Unknown
Mission
Spacecraft
Bus & Motor
Unknown
Mass
Unknown
Launch date (UTC)
1988-12-11 (37 years ago)
Launch vehicle
Unknown
Launch site
French Guiana (FRGUI)
Object type
Payload
Rocket body
Debris
Shape & HBR
Unknown shape, 1.1 m
Radar Cross Section
Medium (>0.1 m² and <1 m²)

Expand to show TLE details & history
Last TLE update: 2 weeks ago

TLE from 2 weeks ago
0 ARIANE 44LP DEB
1 25538U 88109E   25299.50821458  .00000579  00000-0  74863-2 0  9990
2 25538   6.3353 211.4905 7182565 112.9173  94.6746  2.23990397220874
Epoch: 2025-10-26T12:11Z
TLE epoch observation values (Epoch: 2025-10-26T12:11:49.739Z)
Latitude
-6.34597°
Longitude
-96.35329°
Altitude
29,011.323 km
Speed
2.524 km/s
True Right ascension
08h 06m 54s
True Declination
-6° 20' 18"
Sunlit
Object was in daylight at epoch
Visualization orbit readout
Latitude
Unknown
Longitude
Unknown
Altitude
Unknown
Speed
Unknown
Apparent Right ascension
Unknown
Apparent Declination
Unknown
Sunlit
N/A
Visualization observer readout
Local Sidereal Time
21:57:48
Azimuth
Unknown
Elevation
Unknown
Doppler factor
Unknown
Orbital elements
Apogee altitude
36,028.003 km
Perigee altitude
575.222 km
Semi-major axis
24,679.749 km
Eccentricity
0.71826
Inclination
6.3353°
RAAN
211.4905°
Arg. of periapsis
112.9173°
True anomaly
157.35472°
Mean anomaly
94.6746°
Eccentric anomaly
127.37716°
Mean motion
0.5598 °/min
Orbital period
643.09 mins
BSTAR
0.0074863
Loading maneuver chart data...
Computing Atmospheric mass density...
Loading historical data...
Loading historical data...
Loading historical data...
Loading historical data...
Loading historical data...
Loading historical data...
Loading historical data...

Documentation

Showing up to 5 results
|